Time,TemperatureF,DewpointF,PressureIn,WindDirection,WindDirectionDegrees,WindSpeedMPH,WindSpeedGustMPH,Humidity,HourlyPrecipIn,Conditions,Clouds,dailyrainin,SoftwareType,DateUTC
2013-02-02 00:00:00,15.4,7.1,30.09,South,188,9.0,11.0,69,0.00,,OVC080,0.00,VWS V14.01,2013-02-02 05:00:00,
2013-02-02 00:05:00,15.4,7.1,30.09,SSW,198,8.0,13.0,69,0.00,,OVC080,0.00,VWS V14.01,2013-02-02 05:05:00,
2013-02-02 00:12:00,15.6,7.3,30.09,SSW,198,13.0,14.0,69,0.00,,OVC080,0.00,VWS V14.01,2013-02-02 05:12:00,
2013-02-02 00:15:00,15.6,7.3,30.09,SSW,212,13.0,14.0,69,0.00,,OVC080,0.00,VWS V14.01,2013-02-02 05:15:00,
2013-02-02 00:20:00,15.6,7.3,30.09,SSW,198,6.0,13.0,69,0.00,,OVC080,0.00,VWS V14.01,2013-02-02 05:20:00,
2013-02-02 00:25:00,15.7,7.3,30.09,South,191,7.0,11.0,69,0.00,,OVC080,0.00,VWS V14.01,2013-02-02 05:25:00,
2013-02-02 00:30:00,15.7,7.3,30.09,South,184,6.0,12.0,69,0.00,,OVC080,0.00,VWS V14.01,2013-02-02 05:30:00,
2013-02-02 00:35:00,15.9,7.9,30.09,South,185,8.0,12.0,70,0.00,,OVC080,0.00,VWS V14.01,2013-02-02 05:35:00,
2013-02-02 00:40:00,15.9,7.9,30.09,SSW,208,6.0,13.0,70,0.00,,OVC080,0.00,VWS V14.01,2013-02-02 05:40:00,
2013-02-02 00:45:00,16.1,8.4,30.08,SSW,202,6.0,13.0,71,0.00,,OVC080,0.00,VWS V14.01,2013-02-02 05:45:00,
2013-02-02 00:50:00,16.1,8.4,30.08,SSW,209,6.0,12.0,71,0.00,,OVC080,0.00,VWS V14.01,2013-02-02 05:50:00,
2013-02-02 00:55:00,16.2,8.8,30.08,South,179,7.0,13.0,72,0.00,,OVC080,0.00,VWS V14.01,2013-02-02 05:55:00,
2013-02-02 01:05:00,16.2,9.1,30.08,SW,226,11.0,17.0,73,0.00,,OVC080,0.00,VWS V14.01,2013-02-02 06:05:00,
2013-02-02 01:10:00,16.2,9.1,30.08,SSW,192,6.0,13.0,73,0.00,,OVC080,0.00,VWS V14.01,2013-02-02 06:10:00,
2013-02-02 01:15:00,16.4,9.6,30.07,SSW,198,9.0,17.0,74,0.00,,OVC080,0.00,VWS V14.01,2013-02-02 06:15:00,
2013-02-02 01:20:00,16.4,9.6,30.07,SSW,209,10.0,12.0,74,0.00,,OVC080,0.00,VWS V14.01,2013-02-02 06:20:00,
2013-02-02 01:25:00,16.5,9.7,30.07,SSW,205,11.0,14.0,74,0.00,,OVC080,0.00,VWS V14.01,2013-02-02 06:25:00,
2013-02-02 01:30:00,16.5,10.0,30.06,SSW,200,7.0,14.0,75,0.00,,OVC080,0.00,VWS V14.01,2013-02-02 06:30:00,
2013-02-02 01:35:00,16.5,10.0,30.06,SW,217,7.0,13.0,75,0.00,,OVC080,0.00,VWS V14.01,2013-02-02 06:35:00,
2013-02-02 01:40:00,16.5,10.3,30.06,SSW,193,7.0,12.0,76,0.00,,OVC080,0.00,VWS V14.01,2013-02-02 06:40:00,
2013-02-02 01:45:00,16.5,10.3,30.06,SSW,210,5.0,12.0,76,0.00,,OVC080,0.00,VWS V14.01,2013-02-02 06:45:00,
2013-02-02 01:50:00,16.5,10.6,30.06,SSW,210,7.0,11.0,77,0.00,,OVC080,0.00,VWS V14.01,2013-02-02 06:50:00,
2013-02-02 01:55:00,16.5,10.6,30.06,SSW,206,8.0,13.0,77,0.00,,OVC080,0.00,VWS V14.01,2013-02-02 06:55:00,
2013-02-02 02:00:00,16.5,10.9,30.06,SSW,205,9.0,12.0,78,0.00,,,0.00,VWS V14.01,2013-02-02 07:00:00,
2013-02-02 02:05:00,16.5,11.1,30.06,SSW,195,8.0,12.0,79,0.00,,,0.00,VWS V14.01,2013-02-02 07:05:00,
2013-02-02 02:10:00,16.7,11.3,30.06,SSW,208,8.0,13.0,79,0.00,,,0.00,VWS V14.01,2013-02-02 07:10:00,
2013-02-02 02:20:00,16.7,11.3,30.06,SSW,210,8.0,13.0,79,0.00,,,0.00,VWS V14.01,2013-02-02 07:20:00,
2013-02-02 02:25:00,16.7,11.3,30.06,SSW,200,8.0,13.0,79,0.00,,,0.00,VWS V14.01,2013-02-02 07:25:00,
2013-02-02 02:35:00,16.9,11.5,30.06,SSW,202,11.0,13.0,79,0.00,,,0.00,VWS V14.01,2013-02-02 07:35:00,
2013-02-02 02:40:00,16.9,11.8,30.06,SW,219,5.0,12.0,80,0.00,,,0.00,VWS V14.01,2013-02-02 07:40:00,
2013-02-02 02:45:00,16.9,11.8,30.06,SW,216,8.0,9.0,80,0.00,,,0.00,VWS V14.01,2013-02-02 07:45:00,
2013-02-02 02:50:00,17.0,11.9,30.06,SSW,199,2.0,10.0,80,0.00,,,0.00,VWS V14.01,2013-02-02 07:50:00,
2013-02-02 03:00:00,17.0,11.9,30.05,South,175,5.0,11.0,80,0.00,,,0.00,VWS V14.01,2013-02-02 08:00:00,
2013-02-02 03:10:00,17.0,12.2,30.05,South,184,7.0,10.0,81,0.00,,,0.00,VWS V14.01,2013-02-02 08:10:00,
2013-02-02 03:15:00,17.0,12.2,30.05,SSW,200,7.0,11.0,81,0.00,,,0.00,VWS V14.01,2013-02-02 08:15:00,
2013-02-02 03:20:00,17.0,12.2,30.05,South,189,6.0,12.0,81,0.00,,,0.00,VWS V14.01,2013-02-02 08:20:00,
2013-02-02 03:25:00,17.2,12.7,30.05,SSE,151,9.0,10.0,82,0.00,,,0.00,VWS V14.01,2013-02-02 08:25:00,
2013-02-02 03:30:00,17.2,12.7,30.04,SSW,206,13.0,13.0,82,0.00,,,0.00,VWS V14.01,2013-02-02 08:30:00,
2013-02-02 03:35:00,17.2,12.7,30.04,SSW,212,10.0,13.0,82,0.00,,,0.00,VWS V14.01,2013-02-02 08:35:00,
2013-02-02 03:40:00,17.2,12.7,30.04,SSE,155,6.0,16.0,82,0.00,,,0.00,VWS V14.01,2013-02-02 08:40:00,
2013-02-02 03:45:00,17.2,12.4,30.03,SSW,198,11.0,16.0,81,0.00,,,0.00,VWS V14.01,2013-02-02 08:45:00,
2013-02-02 03:50:00,17.2,12.4,30.03,SW,216,6.0,11.0,81,0.00,,,0.00,VWS V14.01,2013-02-02 08:50:00,
2013-02-02 03:55:00,17.2,12.4,30.03,SSW,200,13.0,13.0,81,0.00,,,0.00,VWS V14.01,2013-02-02 08:55:00,
2013-02-02 04:05:00,17.3,12.5,30.02,SSW,213,11.0,11.0,81,0.00,,,0.00,VWS V14.01,2013-02-02 09:05:00,
2013-02-02 04:10:00,17.3,12.8,30.02,South,185,12.0,13.0,82,0.00,,,0.00,VWS V14.01,2013-02-02 09:10:00,
2013-02-02 04:15:00,17.2,12.7,30.01,SSW,200,8.0,16.0,82,0.00,,,0.00,VWS V14.01,2013-02-02 09:15:00,
2013-02-02 04:20:00,17.2,12.7,30.01,SSE,167,3.0,16.0,82,0.00,,,0.00,VWS V14.01,2013-02-02 09:20:00,
2013-02-02 04:25:00,17.2,12.7,30.01,SSW,202,12.0,12.0,82,0.00,,,0.00,VWS V14.01,2013-02-02 09:25:00,
2013-02-02 04:30:00,17.2,12.7,29.99,SSE,157,5.0,13.0,82,0.00,,,0.00,VWS V14.01,2013-02-02 09:30:00,
2013-02-02 04:35:00,17.2,12.7,29.99,South,188,11.0,14.0,82,0.00,,,0.00,VWS V14.01,2013-02-02 09:35:00,
2013-02-02 04:40:00,17.2,12.7,29.99,SSE,164,8.0,11.0,82,0.00,,,0.00,VWS V14.01,2013-02-02 09:40:00,
2013-02-02 04:45:00,17.2,12.7,29.97,SSW,193,9.0,13.0,82,0.00,,,0.00,VWS V14.01,2013-02-02 09:45:00,
2013-02-02 04:51:00,17.3,12.8,29.97,SSE,155,1.0,11.0,82,0.00,,,0.00,VWS V14.01,2013-02-02 09:51:00,
2013-02-02 04:56:00,17.3,13.0,29.97,South,189,8.0,13.0,83,0.00,,,0.00,VWS V14.01,2013-02-02 09:56:00,
2013-02-02 05:01:00,17.3,13.0,29.96,South,184,7.0,16.0,83,0.00,,,0.00,VWS V14.01,2013-02-02 10:01:00,
2013-02-02 05:05:00,17.3,12.8,29.96,SSE,165,9.0,13.0,82,0.00,,,0.00,VWS V14.01,2013-02-02 10:05:00,
2013-02-02 05:10:00,17.5,12.9,29.96,SSW,196,3.0,14.0,82,0.00,,,0.00,VWS V14.01,2013-02-02 10:10:00,
2013-02-02 05:20:00,17.7,13.1,29.95,SSE,165,8.0,14.0,82,0.00,,,0.00,VWS V14.01,2013-02-02 10:20:00,
2013-02-02 05:25:00,17.5,12.9,29.95,SSW,202,14.0,18.0,82,0.00,,,0.00,VWS V14.01,2013-02-02 10:25:00,
2013-02-02 05:35:00,17.7,13.1,29.95,SSW,192,7.0,13.0,82,0.00,,,0.00,VWS V14.01,2013-02-02 10:35:00,
2013-02-02 05:45:00,17.7,13.4,29.95,SSW,198,8.0,18.0,83,0.00,,,0.00,VWS V14.01,2013-02-02 10:45:00,
2013-02-02 05:50:00,17.7,13.4,29.95,South,178,2.0,13.0,83,0.00,,,0.00,VWS V14.01,2013-02-02 10:50:00,
2013-02-02 05:55:00,17.7,13.4,29.95,South,169,11.0,14.0,83,0.00,,,0.00,VWS V14.01,2013-02-02 10:55:00,
2013-02-02 06:00:00,17.7,13.4,29.94,South,182,7.0,11.0,83,0.00,,,0.00,VWS V14.01,2013-02-02 11:00:00,
2013-02-02 06:05:00,17.7,13.7,29.94,South,191,8.0,14.0,84,0.00,,,0.00,VWS V14.01,2013-02-02 11:05:00,
2013-02-02 06:10:00,17.8,13.8,29.94,SSE,168,6.0,14.0,84,0.00,,,0.00,VWS V14.01,2013-02-02 11:10:00,
2013-02-02 06:15:00,17.8,13.8,29.94,SW,217,6.0,14.0,84,0.00,,,0.00,VWS V14.01,2013-02-02 11:15:00,
2013-02-02 06:25:00,18.1,14.1,29.94,SW,219,10.0,14.0,84,0.00,,,0.00,VWS V14.01,2013-02-02 11:25:00,
2013-02-02 06:30:00,18.1,14.1,29.93,SW,219,12.0,14.0,84,0.00,,,0.00,VWS V14.01,2013-02-02 11:30:00,
2013-02-02 06:40:00,18.4,14.1,29.93,South,172,7.0,13.0,83,0.00,,,0.00,VWS V14.01,2013-02-02 11:40:00,
2013-02-02 06:45:00,18.4,14.1,29.93,SSE,161,5.0,14.0,83,0.00,,,0.00,VWS V14.01,2013-02-02 11:45:00,
2013-02-02 06:50:00,18.6,14.3,29.93,SW,216,15.0,18.0,83,0.00,,,0.00,VWS V14.01,2013-02-02 11:50:00,
2013-02-02 06:55:00,18.6,14.0,29.93,SSW,212,13.0,15.0,82,0.00,,,0.00,VWS V14.01,2013-02-02 11:55:00,
2013-02-02 07:05:00,18.8,14.5,29.92,South,191,9.0,14.0,83,0.00,,,0.00,VWS V14.01,2013-02-02 12:05:00,
2013-02-02 07:10:00,18.8,14.5,29.92,SSW,200,7.0,13.0,83,0.00,,,0.00,VWS V14.01,2013-02-02 12:10:00,
2013-02-02 07:15:00,18.9,14.6,29.92,SSE,165,5.0,13.0,83,0.00,,,0.00,VWS V14.01,2013-02-02 12:15:00,
2013-02-02 07:25:00,18.9,14.6,29.92,SSE,160,3.0,13.0,83,0.00,,,0.00,VWS V14.01,2013-02-02 12:25:00,
2013-02-02 07:30:00,19.1,14.8,29.92,SSW,202,6.0,16.0,83,0.00,,,0.00,VWS V14.01,2013-02-02 12:30:00,
2013-02-02 07:35:00,19.1,14.8,29.92,SSW,206,10.0,13.0,83,0.00,,,0.00,VWS V14.01,2013-02-02 12:35:00,
2013-02-02 07:40:00,19.1,15.1,29.92,SSW,209,8.0,13.0,84,0.00,,,0.00,VWS V14.01,2013-02-02 12:40:00,
2013-02-02 07:45:00,19.2,15.2,29.91,SSW,209,7.0,15.0,84,0.00,,,0.00,VWS V14.01,2013-02-02 12:45:00,
2013-02-02 07:50:00,19.2,15.2,29.91,South,189,5.0,13.0,84,0.00,,,0.00,VWS V14.01,2013-02-02 12:50:00,
2013-02-02 08:00:00,19.2,15.2,29.91,SSW,206,6.0,13.0,84,0.00,,,0.00,VWS V14.01,2013-02-02 13:00:00,
2013-02-02 08:05:00,19.4,15.4,29.91,SSW,213,8.0,17.0,84,0.00,,,0.00,VWS V14.01,2013-02-02 13:05:00,
2013-02-02 08:10:00,19.4,15.4,29.91,SW,216,10.0,11.0,84,0.00,,,0.00,VWS V14.01,2013-02-02 13:10:00,
2013-02-02 08:15:00,19.5,15.5,29.91,SSW,192,12.0,12.0,84,0.00,,,0.00,VWS V14.01,2013-02-02 13:15:00,
2013-02-02 08:20:00,19.5,15.5,29.91,SSW,195,14.0,14.0,84,0.00,,,0.00,VWS V14.01,2013-02-02 13:20:00,
2013-02-02 08:25:00,19.7,15.7,29.91,SSW,205,12.0,14.0,84,0.00,,,0.00,VWS V14.01,2013-02-02 13:25:00,
2013-02-02 08:30:00,19.7,15.4,29.91,SSW,198,7.0,17.0,83,0.00,,,0.00,VWS V14.01,2013-02-02 13:30:00,
2013-02-02 08:35:00,19.7,15.4,29.91,SSW,208,9.0,13.0,83,0.00,,,0.00,VWS V14.01,2013-02-02 13:35:00,
2013-02-02 08:40:00,19.7,15.4,29.91,SSW,199,9.0,16.0,83,0.00,,,0.00,VWS V14.01,2013-02-02 13:40:00,
2013-02-02 08:45:00,19.9,15.9,29.90,SSW,210,7.0,11.0,84,0.00,,,0.00,VWS V14.01,2013-02-02 13:45:00,
2013-02-02 08:50:00,19.9,15.9,29.90,SW,220,16.0,16.0,84,0.00,,,0.00,VWS V14.01,2013-02-02 13:50:00,
2013-02-02 09:01:00,20.0,15.9,29.90,SSW,205,7.0,14.0,84,0.00,,,0.00,VWS V14.01,2013-02-02 14:01:00,
2013-02-02 09:11:00,20.0,16.2,29.90,SW,215,8.0,11.0,85,0.00,,,0.00,VWS V14.01,2013-02-02 14:11:00,
2013-02-02 09:20:00,20.2,16.4,29.90,SSW,210,7.0,12.0,85,0.00,,,0.00,VWS V14.01,2013-02-02 14:20:00,
2013-02-02 09:25:00,20.3,16.8,29.90,SW,217,10.0,10.0,86,0.00,,,0.00,VWS V14.01,2013-02-02 14:25:00,
2013-02-02 09:30:00,20.3,16.8,29.90,SW,223,8.0,13.0,86,0.00,,,0.00,VWS V14.01,2013-02-02 14:30:00,
2013-02-02 09:35:00,20.5,17.0,29.90,SW,224,6.0,12.0,86,0.00,,,0.00,VWS V14.01,2013-02-02 14:35:00,
2013-02-02 09:40:00,20.5,17.0,29.90,SSW,209,13.0,13.0,86,0.00,,,0.00,VWS V14.01,2013-02-02 14:40:00,
2013-02-02 09:45:00,20.5,17.0,29.89,SSW,198,7.0,14.0,86,0.00,,,0.00,VWS V14.01,2013-02-02 14:45:00,
2013-02-02 09:55:00,20.6,17.1,29.89,SW,236,5.0,16.0,86,0.00,,,0.00,VWS V14.01,2013-02-02 14:55:00,
2013-02-02 10:00:00,20.6,17.1,29.89,SW,220,8.0,13.0,86,0.00,,,0.00,VWS V14.01,2013-02-02 15:00:00,
2013-02-02 10:05:00,20.8,17.3,29.89,SW,226,7.0,13.0,86,0.00,,,0.00,VWS V14.01,2013-02-02 15:05:00,
2013-02-02 10:10:00,20.8,17.3,29.89,SSW,213,11.0,16.0,86,0.00,,,0.00,VWS V14.01,2013-02-02 15:10:00,
2013-02-02 10:20:00,21.0,17.8,29.88,SW,217,12.0,13.0,87,0.00,,,0.00,VWS V14.01,2013-02-02 15:20:00,
2013-02-02 10:25:00,21.0,17.8,29.88,SSW,206,7.0,14.0,87,0.00,,,0.00,VWS V14.01,2013-02-02 15:25:00,
2013-02-02 10:30:00,21.1,17.8,29.88,SW,215,7.0,14.0,87,0.00,,,0.00,VWS V14.01,2013-02-02 15:30:00,
2013-02-02 10:35:00,21.3,17.8,29.88,SW,223,6.0,11.0,86,0.00,,,0.00,VWS V14.01,2013-02-02 15:35:00,
2013-02-02 10:40:00,21.3,17.8,29.88,SW,233,8.0,14.0,86,0.00,,,0.00,VWS V14.01,2013-02-02 15:40:00,
2013-02-02 10:45:00,21.4,17.9,29.87,SW,220,7.0,13.0,86,0.00,,,0.00,VWS V14.01,2013-02-02 15:45:00,
2013-02-02 10:50:00,21.4,17.9,29.87,SW,233,10.0,14.0,86,0.00,,,0.00,VWS V14.01,2013-02-02 15:50:00,
2013-02-02 10:55:00,21.6,17.8,29.87,SSW,205,7.0,15.0,85,0.00,,,0.00,VWS V14.01,2013-02-02 15:55:00,
2013-02-02 11:01:00,21.6,17.8,29.86,SW,226,12.0,16.0,85,0.00,,,0.00,VWS V14.01,2013-02-02 16:01:00,
2013-02-02 11:11:00,21.8,17.7,29.86,South,185,5.0,16.0,84,0.00,,,0.00,VWS V14.01,2013-02-02 16:11:00,
2013-02-02 11:20:00,21.9,17.5,29.86,SW,233,12.0,15.0,83,0.00,,,0.00,VWS V14.01,2013-02-02 16:20:00,
2013-02-02 11:25:00,21.9,17.5,29.86,WSW,237,7.0,14.0,83,0.00,,,0.00,VWS V14.01,2013-02-02 16:25:00,
2013-02-02 11:30:00,22.1,17.7,29.86,SW,226,8.0,16.0,83,0.00,,,0.00,VWS V14.01,2013-02-02 16:30:00,
2013-02-02 11:35:00,22.2,17.8,29.86,WSW,241,11.0,13.0,83,0.00,,,0.00,VWS V14.01,2013-02-02 16:35:00,
2013-02-02 11:40:00,22.2,17.5,29.86,SW,224,10.0,18.0,82,0.00,,,0.00,VWS V14.01,2013-02-02 16:40:00,
2013-02-02 11:45:00,22.4,17.8,29.86,WSW,250,7.0,18.0,82,0.00,,,0.00,VWS V14.01,2013-02-02 16:45:00,
2013-02-02 11:50:00,22.4,17.8,29.86,SW,220,7.0,18.0,82,0.00,,,0.00,VWS V14.01,2013-02-02 16:50:00,
2013-02-02 11:55:00,22.5,17.9,29.86,SW,234,13.0,14.0,82,0.00,,,0.00,VWS V14.01,2013-02-02 16:55:00,
2013-02-02 12:00:00,22.5,17.9,29.86,SW,224,13.0,16.0,82,0.00,,,0.00,VWS V14.01,2013-02-02 17:00:00,
2013-02-02 12:05:00,22.7,18.3,29.86,WSW,253,13.0,13.0,83,0.00,,,0.00,VWS V14.01,2013-02-02 17:05:00,
2013-02-02 12:10:00,22.7,18.3,29.86,SW,227,5.0,15.0,83,0.00,,,0.00,VWS V14.01,2013-02-02 17:10:00,
2013-02-02 12:15:00,22.7,18.3,29.85,SW,220,10.0,12.0,83,0.00,,,0.00,VWS V14.01,2013-02-02 17:15:00,
2013-02-02 12:20:00,22.9,18.5,29.85,SSW,195,8.0,12.0,83,0.00,,,0.00,VWS V14.01,2013-02-02 17:20:00,
2013-02-02 12:25:00,23.0,18.6,29.85,SW,234,6.0,12.0,83,0.00,,,0.00,VWS V14.01,2013-02-02 17:25:00,
2013-02-02 12:30:00,23.0,18.6,29.85,WSW,251,8.0,13.0,83,0.00,,,0.00,VWS V14.01,2013-02-02 17:30:00,
2013-02-02 12:35:00,23.0,18.6,29.85,SW,224,11.0,14.0,83,0.00,,,0.00,VWS V14.01,2013-02-02 17:35:00,
2013-02-02 12:40:00,23.0,18.6,29.85,SW,224,10.0,12.0,83,0.00,,,0.00,VWS V14.01,2013-02-02 17:40:00,
2013-02-02 12:45:00,23.3,18.9,29.84,SW,232,8.0,11.0,83,0.00,,,0.00,VWS V14.01,2013-02-02 17:45:00,
2013-02-02 12:55:00,23.5,19.1,29.84,WSW,247,8.0,11.0,83,0.00,,,0.00,VWS V14.01,2013-02-02 17:55:00,
2013-02-02 13:00:00,23.5,19.1,29.83,SW,232,6.0,12.0,83,0.00,,,0.00,VWS V14.01,2013-02-02 18:00:00,
2013-02-02 13:05:00,23.6,19.2,29.83,WSW,250,7.0,10.0,83,0.00,,,0.00,VWS V14.01,2013-02-02 18:05:00,
2013-02-02 13:10:00,23.6,19.2,29.83,WSW,240,8.0,14.0,83,0.00,,,0.00,VWS V14.01,2013-02-02 18:10:00,
2013-02-02 13:15:00,23.6,19.2,29.83,WSW,240,7.0,14.0,83,0.00,,,0.00,VWS V14.01,2013-02-02 18:15:00,
2013-02-02 13:20:00,23.8,19.4,29.83,WSW,241,7.0,12.0,83,0.00,,,0.00,VWS V14.01,2013-02-02 18:20:00,
2013-02-02 13:25:00,23.9,19.5,29.83,SW,219,3.0,10.0,83,0.00,,,0.00,VWS V14.01,2013-02-02 18:25:00,
2013-02-02 13:30:00,23.8,19.1,29.82,SW,227,10.0,12.0,82,0.00,,,0.00,VWS V14.01,2013-02-02 18:30:00,
2013-02-02 13:35:00,23.6,19.2,29.82,SSW,210,5.0,16.0,83,0.00,,,0.00,VWS V14.01,2013-02-02 18:35:00,
2013-02-02 13:41:00,23.6,19.2,29.82,West,270,10.0,12.0,83,0.00,,,0.00,VWS V14.01,2013-02-02 18:41:00,
2013-02-02 13:50:00,23.8,19.4,29.82,WSW,248,5.0,10.0,83,0.00,,,0.00,VWS V14.01,2013-02-02 18:50:00,
2013-02-02 13:55:00,23.9,19.5,29.82,SW,233,6.0,10.0,83,0.00,,,0.00,VWS V14.01,2013-02-02 18:55:00,
2013-02-02 14:05:00,23.8,19.4,29.82,WSW,253,11.0,12.0,83,0.00,,,0.00,VWS V14.01,2013-02-02 19:05:00,
2013-02-02 14:10:00,23.8,19.4,29.82,WSW,257,9.0,12.0,83,0.00,,,0.00,VWS V14.01,2013-02-02 19:10:00,
2013-02-02 14:15:00,23.8,19.4,29.82,WSW,251,7.0,11.0,83,0.00,,,0.00,VWS V14.01,2013-02-02 19:15:00,
2013-02-02 14:21:00,23.9,19.5,29.82,WSW,244,10.0,11.0,83,0.00,,,0.00,VWS V14.01,2013-02-02 19:21:00,
2013-02-02 14:26:00,23.9,19.5,29.82,WSW,253,8.0,12.0,83,0.00,,,0.00,VWS V14.01,2013-02-02 19:26:00,
2013-02-02 14:36:00,23.9,19.5,29.82,West,263,9.0,11.0,83,0.00,,,0.00,VWS V14.01,2013-02-02 19:36:00,
2013-02-02 14:45:00,23.9,19.2,29.82,WSW,258,11.0,12.0,82,0.00,,,0.00,VWS V14.01,2013-02-02 19:45:00,
2013-02-02 14:50:00,24.1,19.4,29.82,West,260,6.0,11.0,82,0.00,,,0.00,VWS V14.01,2013-02-02 19:50:00,
2013-02-02 14:56:00,23.9,19.2,29.82,West,271,6.0,7.0,82,0.00,,,0.00,VWS V14.01,2013-02-02 19:56:00,
2013-02-02 15:05:00,24.2,19.5,29.82,SW,230,5.0,10.0,82,0.00,,,0.00,VWS V14.01,2013-02-02 20:05:00,
2013-02-02 15:10:00,24.2,19.5,29.82,WSW,237,3.0,8.0,82,0.00,,,0.00,VWS V14.01,2013-02-02 20:10:00,
2013-02-02 15:15:00,24.2,19.2,29.82,WSW,256,8.0,11.0,81,0.00,,,0.00,VWS V14.01,2013-02-02 20:15:00,
2013-02-02 15:25:00,24.2,19.2,29.82,West,277,6.0,11.0,81,0.00,,,0.00,VWS V14.01,2013-02-02 20:25:00,
2013-02-02 15:30:00,24.4,19.4,29.82,West,267,6.0,11.0,81,0.00,,,0.00,VWS V14.01,2013-02-02 20:30:00,
2013-02-02 15:35:00,24.4,19.4,29.82,WSW,253,6.0,8.0,81,0.00,,,0.00,VWS V14.01,2013-02-02 20:35:00,
2013-02-02 15:40:00,24.4,19.1,29.82,West,260,7.0,12.0,80,0.00,,,0.00,VWS V14.01,2013-02-02 20:40:00,
2013-02-02 15:45:00,24.4,19.1,29.83,West,267,6.0,10.0,80,0.00,,,0.00,VWS V14.01,2013-02-02 20:45:00,
2013-02-02 15:50:00,24.4,19.1,29.83,WSW,251,6.0,7.0,80,0.00,,,0.00,VWS V14.01,2013-02-02 20:50:00,
2013-02-02 16:00:00,24.4,19.4,29.83,WSW,257,3.0,10.0,81,0.00,,,0.00,VWS V14.01,2013-02-02 21:00:00,
2013-02-02 16:05:00,24.5,19.5,29.83,WSW,237,3.0,8.0,81,0.00,,,0.00,VWS V14.01,2013-02-02 21:05:00,
2013-02-02 16:10:00,24.5,19.5,29.83,WSW,246,6.0,10.0,81,0.00,,,0.00,VWS V14.01,2013-02-02 21:10:00,
2013-02-02 16:20:00,24.5,19.2,29.83,WNW,282,7.0,10.0,80,0.00,,,0.00,VWS V14.01,2013-02-02 21:20:00,
2013-02-02 16:30:00,24.4,19.1,29.83,West,271,6.0,11.0,80,0.00,,,0.00,VWS V14.01,2013-02-02 21:30:00,
2013-02-02 16:35:00,24.5,19.5,29.83,West,272,5.0,7.0,81,0.00,,,0.00,VWS V14.01,2013-02-02 21:35:00,
2013-02-02 16:40:00,24.4,19.4,29.83,West,280,6.0,10.0,81,0.00,,,0.00,VWS V14.01,2013-02-02 21:40:00,
2013-02-02 16:45:00,24.4,19.7,29.84,West,275,3.0,8.0,82,0.00,,,0.00,VWS V14.01,2013-02-02 21:45:00,
2013-02-02 16:55:00,23.6,18.9,29.84,NNE,14,9.0,13.0,82,0.00,,,0.00,VWS V14.01,2013-02-02 21:55:00,
2013-02-02 17:00:00,22.5,17.9,29.84,North,359,9.0,13.0,82,0.00,,,0.00,VWS V14.01,2013-02-02 22:00:00,
2013-02-02 17:05:00,22.2,17.8,29.84,North,356,7.0,12.0,83,0.00,,,0.00,VWS V14.01,2013-02-02 22:05:00,
2013-02-02 17:10:00,22.1,17.7,29.84,NNE,14,10.0,11.0,83,0.00,,,0.00,VWS V14.01,2013-02-02 22:10:00,
2013-02-02 17:15:00,21.9,17.5,29.85,NNE,25,8.0,10.0,83,0.00,,,0.00,VWS V14.01,2013-02-02 22:15:00,
2013-02-02 17:21:00,21.9,17.8,29.85,North,0,6.0,8.0,84,0.00,,,0.00,VWS V14.01,2013-02-02 22:21:00,
2013-02-02 17:30:00,21.9,17.8,29.85,North,1,6.0,9.0,84,0.00,,,0.00,VWS V14.01,2013-02-02 22:30:00,
2013-02-02 17:35:00,21.8,17.4,29.85,North,11,6.0,8.0,83,0.00,,,0.00,VWS V14.01,2013-02-02 22:35:00,
2013-02-02 17:45:00,21.6,17.2,29.86,North,0,2.0,7.0,83,0.00,,,0.00,VWS V14.01,2013-02-02 22:45:00,
2013-02-02 17:50:00,21.6,17.2,29.86,North,1,5.0,6.0,83,0.00,,,0.00,VWS V14.01,2013-02-02 22:50:00,
2013-02-02 17:55:00,21.4,17.0,29.86,NNE,23,6.0,7.0,83,0.00,,,0.00,VWS V14.01,2013-02-02 22:55:00,
2013-02-02 18:00:00,21.4,17.3,29.86,NNE,31,4.0,7.0,84,0.00,,,0.00,VWS V14.01,2013-02-02 23:00:00,
2013-02-02 18:05:00,21.3,17.2,29.86,North,359,5.0,6.0,84,0.00,,,0.00,VWS V14.01,2013-02-02 23:05:00,
2013-02-02 18:10:00,21.3,17.2,29.86,North,0,1.0,6.0,84,0.00,,,0.00,VWS V14.01,2013-02-02 23:10:00,
2013-02-02 18:15:00,21.3,17.2,29.86,North,0,3.0,5.0,84,0.00,,,0.00,VWS V14.01,2013-02-02 23:15:00,
2013-02-02 18:20:00,21.3,17.2,29.86,North,0,3.0,3.0,84,0.00,,,0.00,VWS V14.01,2013-02-02 23:20:00,
2013-02-02 18:30:00,21.4,17.3,29.87,NNW,330,2.0,6.0,84,0.00,,,0.00,VWS V14.01,2013-02-02 23:30:00,
2013-02-02 18:35:00,21.4,17.3,29.87,NNW,330,3.0,3.0,84,0.00,,,0.00,VWS V14.01,2013-02-02 23:35:00,
2013-02-02 18:40:00,21.4,17.3,29.87,NNW,330,2.0,5.0,84,0.00,,,0.00,VWS V14.01,2013-02-02 23:40:00,
2013-02-02 18:45:00,21.3,17.2,29.86,NNW,332,3.0,5.0,84,0.00,,,0.00,VWS V14.01,2013-02-02 23:45:00,
2013-02-02 18:50:00,21.3,17.2,29.86,NNW,332,3.0,3.0,84,0.00,,,0.00,VWS V14.01,2013-02-02 23:50:00,
2013-02-02 19:00:00,21.1,17.0,29.86,NNW,332,2.0,4.0,84,0.00,,,0.00,VWS V14.01,2013-02-03 00:00:00,
2013-02-02 19:05:00,21.1,17.0,29.86,NNW,332,2.0,2.0,84,0.00,,,0.00,VWS V14.01,2013-02-03 00:05:00,
2013-02-02 19:15:00,21.1,17.3,29.87,NNW,332,0.0,0.0,85,0.00,,,0.00,VWS V14.01,2013-02-03 00:15:00,
2013-02-02 19:21:00,21.0,17.2,29.87,NNW,332,1.0,2.0,85,0.00,,,0.00,VWS V14.01,2013-02-03 00:21:00,
2013-02-02 19:30:00,21.0,17.2,29.87,NNW,330,1.0,3.0,85,0.00,,,0.00,VWS V14.01,2013-02-03 00:30:00,
2013-02-02 19:35:00,21.1,17.6,29.87,NW,326,2.0,6.0,86,0.00,,,0.00,VWS V14.01,2013-02-03 00:35:00,
2013-02-02 19:40:00,21.1,17.6,29.87,WNW,302,4.0,6.0,86,0.00,,,0.00,VWS V14.01,2013-02-03 00:40:00,
2013-02-02 19:45:00,21.3,17.8,29.87,West,280,5.0,6.0,86,0.00,,,0.00,VWS V14.01,2013-02-03 00:45:00,
2013-02-02 19:50:00,21.3,17.8,29.87,WNW,296,1.0,7.0,86,0.00,,,0.00,VWS V14.01,2013-02-03 00:50:00,
2013-02-02 19:55:00,21.3,17.5,29.87,WNW,296,3.0,8.0,85,0.00,,,0.00,VWS V14.01,2013-02-03 00:55:00,
2013-02-02 20:00:00,21.1,17.3,29.88,West,264,6.0,10.0,85,0.00,,,0.00,VWS V14.01,2013-02-03 01:00:00,
2013-02-02 20:10:00,21.0,17.2,29.88,WSW,257,8.0,13.0,85,0.00,,,0.00,VWS V14.01,2013-02-03 01:10:00,
2013-02-02 20:15:00,20.6,16.8,29.88,West,270,6.0,12.0,85,0.00,,,0.00,VWS V14.01,2013-02-03 01:15:00,
2013-02-02 20:20:00,20.5,16.7,29.88,West,270,6.0,9.0,85,0.00,,,0.00,VWS V14.01,2013-02-03 01:20:00,
2013-02-02 20:25:00,20.5,16.7,29.88,NW,315,7.0,10.0,85,0.00,,,0.00,VWS V14.01,2013-02-03 01:25:00,
2013-02-02 20:35:00,20.3,16.5,29.88,WNW,291,8.0,10.0,85,0.00,,,0.00,VWS V14.01,2013-02-03 01:35:00,
2013-02-02 20:40:00,20.3,16.5,29.88,West,280,3.0,10.0,85,0.00,,,0.00,VWS V14.01,2013-02-03 01:40:00,
2013-02-02 20:45:00,20.2,16.4,29.89,West,270,11.0,12.0,85,0.00,,,0.00,VWS V14.01,2013-02-03 01:45:00,
2013-02-02 20:50:00,20.0,16.2,29.89,West,272,6.0,11.0,85,0.00,,,0.00,VWS V14.01,2013-02-03 01:50:00,
2013-02-02 21:00:00,19.7,15.9,29.89,West,265,7.0,14.0,85,0.00,,OVC041,0.00,VWS V14.01,2013-02-03 02:00:00,
2013-02-02 21:11:00,19.4,15.6,29.89,WNW,298,6.0,16.0,85,0.00,,OVC041,0.00,VWS V14.01,2013-02-03 02:11:00,
2013-02-02 21:20:00,19.2,15.4,29.89,West,278,11.0,12.0,85,0.00,,OVC041,0.00,VWS V14.01,2013-02-03 02:20:00,
2013-02-02 21:25:00,19.1,15.3,29.89,West,271,11.0,13.0,85,0.00,,OVC041,0.00,VWS V14.01,2013-02-03 02:25:00,
2013-02-02 21:30:00,18.9,15.1,29.89,West,268,12.0,14.0,85,0.00,,OVC041,0.00,VWS V14.01,2013-02-03 02:30:00,
2013-02-02 21:35:00,18.8,14.8,29.89,WNW,287,12.0,13.0,84,0.00,,OVC041,0.00,VWS V14.01,2013-02-03 02:35:00,
2013-02-02 21:40:00,18.6,14.6,29.89,West,274,5.0,13.0,84,0.00,,OVC041,0.00,VWS V14.01,2013-02-03 02:40:00,
2013-02-02 21:46:00,18.6,14.6,29.89,WNW,294,6.0,11.0,84,0.00,,OVC041,0.00,VWS V14.01,2013-02-03 02:46:00,
2013-02-02 21:55:00,18.4,14.4,29.89,West,265,6.0,10.0,84,0.00,,OVC041,0.00,VWS V14.01,2013-02-03 02:55:00,
2013-02-02 22:00:00,18.3,14.3,29.89,WNW,284,6.0,10.0,84,0.00,,OVC029,0.00,VWS V14.01,2013-02-03 03:00:00,
2013-02-02 22:10:00,18.3,14.3,29.89,West,272,10.0,10.0,84,0.00,,OVC029,0.00,VWS V14.01,2013-02-03 03:10:00,
2013-02-02 22:15:00,18.1,14.1,29.89,West,271,8.0,11.0,84,0.00,,OVC029,0.00,VWS V14.01,2013-02-03 03:15:00,
2013-02-02 22:20:00,18.0,14.0,29.89,WNW,295,8.0,12.0,84,0.00,,OVC029,0.00,VWS V14.01,2013-02-03 03:20:00,
2013-02-02 22:25:00,18.0,14.0,29.89,WSW,256,2.0,8.0,84,0.00,,OVC029,0.00,VWS V14.01,2013-02-03 03:25:00,
2013-02-02 22:30:00,17.8,13.8,29.89,West,272,10.0,13.0,84,0.00,,OVC029,0.00,VWS V14.01,2013-02-03 03:30:00,
2013-02-02 22:35:00,17.8,13.8,29.89,West,267,7.0,10.0,84,0.00,,OVC029,0.00,VWS V14.01,2013-02-03 03:35:00,
2013-02-02 22:45:00,17.5,13.2,29.88,NW,304,8.0,12.0,83,0.00,,OVC029,0.00,VWS V14.01,2013-02-03 03:45:00,
2013-02-02 22:55:00,17.3,13.0,29.88,West,274,8.0,12.0,83,0.00,,OVC029,0.00,VWS V14.01,2013-02-03 03:55:00,
2013-02-02 23:01:00,17.2,12.9,29.88,West,267,9.0,10.0,83,0.00,,OVC029,0.00,VWS V14.01,2013-02-03 04:01:00,
2013-02-02 23:10:00,16.9,12.4,29.88,West,265,11.0,11.0,82,0.00,,OVC029,0.00,VWS V14.01,2013-02-03 04:10:00,
2013-02-02 23:15:00,16.7,12.2,29.88,WNW,282,6.0,11.0,82,0.00,,OVC029,0.00,VWS V14.01,2013-02-03 04:15:00,
2013-02-02 23:25:00,16.5,12.0,29.88,West,278,7.0,8.0,82,0.00,,OVC029,0.00,VWS V14.01,2013-02-03 04:25:00,
2013-02-02 23:35:00,16.4,11.9,29.88,WNW,296,6.0,8.0,82,0.00,,OVC029,0.00,VWS V14.01,2013-02-03 04:35:00,
2013-02-02 23:40:00,16.4,11.9,29.88,West,265,5.0,8.0,82,0.00,,OVC029,0.00,VWS V14.01,2013-02-03 04:40:00,
2013-02-02 23:50:00,16.2,11.7,29.88,West,265,7.0,12.0,82,0.00,,OVC029,0.00,VWS V14.01,2013-02-03 04:50:00,
2013-02-02 23:56:00,16.1,11.3,29.88,West,267,6.0,10.0,81,0.00,,OVC029,0.00,VWS V14.01,2013-02-03 04:56:00,